Home   Weather   Molepolole   Past weeks

Flag for Botswana Past Weather in Molepolole, Botswana — Yesterday and Last 2 Weeks

Now
66 °F

Light rain. Partly cloudy.


Feels Like: 66 °F
Forecast: 63 / 67 °F
Wind: 8 mph from Southeast

Location: Seretse Khama International Airport

Current Time: Feb 23, 2017 at 10:56:45 pm

Latest Report: Feb 23, 2017 at 10:00 pm


Visibility: N/A

Pressure: 30.07 "Hg (26.30 "Hg at 1145m altitude)

Humidity: 100%

Dew Point: 66 °F

Location of MolepololeLocation

Past Weather in Molepolole — Graph

°F

Molepolole Temperature Yesterday

Maximum temperature yesterday: 79 °F (at 2:00 pm)
Minimum temperature yesterday: 64 °F (at 12:00 am)
Average temperature yesterday: 72 °F

High & Low Weather Summary for the Past Weeks

 TemperatureHumidityPressure
High90 °F (Feb 9, 2:00 pm)100% (Feb 9, 3:00 am)30.18 "Hg (Feb 9, 3:00 am)
Low64 °F (Feb 10, 9:00 am)38% (Feb 12, 3:00 pm)29.83 "Hg (Feb 21, 3:00 pm)
Average75 °F76%30.01 "Hg
* Reported Feb 8 9:00 pm — Feb 23 9:00 pm, Molepolole, Weather by CustomWeather, © 2017

Note: Actual official high and low records may vary slightly from our data, if they occured in-between our weather recording intervals... More about our weather records

Advertising

Molepolole Weather History for the Previous 24 Hours

Scroll right to see more
 ConditionsComfort  
Time TempWeatherWind HumidityBarometerVisibility
9:00 pm
Thu, Feb 23
66 °FLight rain. Partly cloudy.9 mph100%30.04 "HgN/A
8:00 pm66 °FLight rain. Partly cloudy.12 mph100%30.04 "Hg4 mi
7:00 pm66 °FLight rain. Partly cloudy.12 mph100%30.01 "HgN/A
6:00 pm66 °FLight rain. Broken clouds.10 mph100%30.01 "Hg6 mi
5:00 pm66 °FLight rain. Broken clouds.10 mph100%29.98 "HgN/A
4:00 pm66 °FLight rain. Broken clouds.13 mph100%N/AN/A
3:00 pm66 °FLight rain. Broken clouds.13 mph100%30.01 "Hg4 mi
2:00 pm66 °FLight rain. Mostly cloudy.10 mph100%30.01 "Hg5 mi
1:00 pm66 °FRain. More clouds than sun.13 mph100%30.04 "Hg5 mi
12:00 pm66 °FLight rain. More clouds than sun.13 mph100%30.04 "Hg5 mi
11:00 am64 °FRain. Mostly cloudy.10 mph100%30.04 "Hg4 mi
10:00 am64 °FLight rain. Low clouds.10 mph100%30.04 "HgN/A
9:00 am64 °FRain. Mostly cloudy.9 mph100%30.04 "Hg4 mi
8:00 am66 °FLight rain. More clouds than sun.15 mph94%30.01 "HgN/A
7:00 am66 °FLight rain. Mostly cloudy.16 mph94%29.98 "Hg4 mi
6:00 am64 °FLight rain. Low clouds.13 mph100%29.98 "Hg4 mi
5:00 am66 °FLight rain. Overcast.12 mph100%29.95 "Hg3 mi
4:00 am66 °FLight rain. Overcast.10 mph100%29.95 "HgN/A
3:00 am68 °FLight rain. Overcast.10 mph100%29.95 "HgN/A
2:00 am68 °FLight rain. Overcast.12 mph94%29.98 "HgN/A
1:00 am70 °FPassing clouds.12 mph88%29.98 "HgN/A
12:00 am70 °FPassing clouds.8 mph88%30.01 "HgN/A
11:00 pm
Wed, Feb 22
70 °FPassing clouds.8 mph88%29.98 "HgN/A
10:00 pm72 °FPassing clouds.12 mph83%29.98 "HgN/A
Weather by CustomWeather, © 2017

See weather overviewHow to use our weather pages